Weather observations for the past three days for
Trenton, Mercer County Airport
Imperial (Metric)
Date Time (edt) Wind (mph) Vis. (mi.) Weather Sky Cond. Temperature (ºF) Relative Humidity Wind Chill (°F) Heat Index (°F) Pressure Precipitation (in)
Air Dwpt 6 hour altimeter (in) sea level (mb) 1 hr 3 hr 6 hr
Max. Min.
13 14:53 SW 12 10.00 A Few Clouds FEW060 84 57.9 41% 83 29.97 1014.3
13 13:53 SW 13 10.00 Partly Cloudy SCT065 82 55.9 84.9 66 41% 82 29.99 1014.8
13 12:53 Vrbl 6 10.00 A Few Clouds FEW060 82 55 40% 81 30 1015.1
13 11:53 W 6 10.00 Mostly Cloudy FEW045 BKN060 82 57.9 44% 82 30.02 1015.7
13 10:53 W 6 10.00 Fair CLR 80.1 59 49% 81 30.02 1015.9
13 09:53 Vrbl 3 10.00 Fair CLR 75.9 62.1 62% 78 30.03 1016.1
13 08:53 S 3 10.00 Fair CLR 71.1 61 71% 30.04 1016.5
13 07:53 SW 5 10.00 Fair CLR 66 60.1 66 55.9 81% 30.03 1016.3
13 06:53 S 3 10.00 Fair CLR 60.1 55.9 86% 30.03 1016.2
13 05:53 Calm 10.00 Fair CLR 57 54 90% 30.02 1016.0
13 04:53 Calm 10.00 Fair CLR 57 54 90% 30.01 1015.4
13 03:53 Calm 10.00 Fair CLR 59 54 83% 30.01 1015.4
13 02:53 Calm 10.00 Fair CLR 57.9 54 87% 30 1015.1
13 01:53 Calm 10.00 Fair CLR 64 54 73.9 61 70% 30 1015.3
13 00:53 Calm 10.00 Fair CLR 62.1 55 78% 30.01 1015.4
12 23:53 Calm 10.00 Fair CLR 66 55.9 70% 30.01 1015.5
12 22:53 S 3 10.00 Fair CLR 66 53.1 63% 30.01 1015.4
12 21:53 Calm 10.00 Fair CLR 70 52 53% 30 1015.3
12 20:53 Calm 10.00 Fair CLR 72 51.1 48% 29.99 1014.8
12 19:53 SW 3 10.00 Fair CLR 73.9 50 78.1 73 43% 29.98 1014.6
12 18:53 Vrbl 6 10.00 Fair CLR 75.9 51.1 42% 78 29.98 1014.5
12 17:53 N 6 10.00 A Few Clouds FEW070 77 50 39% 78 29.98 1014.6
12 16:53 W 7 10.00 Partly Cloudy SCT060 77 51.1 40% 78 29.99 1014.9
12 15:53 SW 7 10.00 Mostly Cloudy BKN060 75 51.1 43% 78 29.99 1015.0
12 14:53 W 6 10.00 Mostly Cloudy BKN060 77 51.1 40% 78 30.01 1015.5
12 13:53 Calm 10.00 Partly Cloudy SCT055 75.9 51.1 77 62.1 42% 78 30.02 1015.8
12 12:53 NW 7 10.00 Partly Cloudy SCT050 73.9 51.1 45% 30.03 1016.3
12 11:53 NW 8 10.00 Partly Cloudy SCT050 72 51.1 48% 30.04 1016.4
12 09:53 Vrbl 5 10.00 Fair CLR 70 54 57% 30.05 1016.8
12 08:53 Vrbl 3 10.00 Fair CLR 66.9 55.9 68% 30.05 1016.8
12 07:53 W 3 10.00 Overcast OVC060 62.1 55 62.1 55.9 78% 30.05 1016.8
12 06:53 W 3 10.00 Overcast OVC060 60.1 54 80% 30.04 1016.5
12 05:53 NW 3 10.00 Overcast OVC060 59 54 83% 30.03 1016.2
12 04:53 Calm 10.00 Mostly Cloudy FEW049 BKN065 57 52 83% 30.02 1015.8
12 03:53 N 5 10.00 Fair CLR 57 53.1 87% 29.99 1015.0
12 02:53 NW 5 10.00 Fair CLR 59 54 83% 30 1015.2
12 01:53 NW 6 10.00 Mostly Cloudy BKN060 62.1 55 69.1 62.1 78% 30 1015.2
12 00:53 Calm 10.00 Overcast OVC065 64 57 78% 30 1015.2
11 23:53 N 3 10.00 Overcast OVC060 64.9 55.9 73% 30 1015.2
11 22:53 SW 3 10.00 Overcast OVC090 66 55.9 70% 29.99 1014.7
11 21:53 W 3 10.00 Overcast OVC090 66.9 55 66% 29.97 1014.2
11 20:53 Calm 10.00 Overcast OVC090 66.9 54 63% 29.95 1013.6
11 19:53 Calm 10.00 Overcast OVC095 68 54 73 68 61% 29.94 1013.3
11 18:53 NW 5 10.00 Overcast OVC095 69.1 54 59% 29.94 1013.1
11 17:53 W 5 10.00 Overcast OVC080 70 54 57% 29.93 1012.7
11 16:53 W 6 10.00 Overcast OVC070 69.1 54 59% 29.92 1012.5
11 15:53 W 5 10.00 Overcast OVC075 70 53.1 55% 29.93 1012.8
11 14:53 W 8 10.00 Overcast FEW044 BKN075 OVC090 71.1 52 51% 29.92 1012.7
11 13:53 W 8 10.00 Mostly Cloudy BKN039 BKN100 73 55 73 62.1 53% 29.92 1012.5
11 12:53 Vrbl 3 10.00 Overcast OVC065 69.1 53.1 57% 29.93 1012.8
11 11:53 Calm 10.00 Overcast OVC070 68 53.1 59% 29.94 1013.0
11 10:53 Calm 10.00 Overcast OVC060 66 52 61% 29.94 1013.1
11 09:53 N 8 10.00 Mostly Cloudy SCT060 BKN110 64.9 51.1 61% 29.93 1012.8
11 08:53 NE 7 10.00 Fair CLR 64 51.1 63% 29.93 1012.9
11 07:53 N 8 10.00 Fair CLR 63 52 63 55 68% 29.91 1012.3
11 06:53 N 6 10.00 Fair CLR 59 52 78% 29.89 1011.6
11 05:53 N 7 10.00 Fair CLR 55.9 51.1 84% 29.87 1010.8
11 04:53 N 7 10.00 A Few Clouds FEW070 57.9 51.1 78% 29.85 1010.3
11 03:53 N 6 10.00 Fair CLR 55.9 51.1 84% 29.85 1010.1
11 02:53 N 5 10.00 Fair CLR 55.9 52 87% 29.84 1009.6
11 01:53 Calm 10.00 Fair CLR 57.9 52 71.1 57 81% 29.83 1009.6
11 00:53 NW 3 10.00 A Few Clouds FEW070 57.9 52 81% 29.82 1009.1
10 23:53 NW 3 10.00 Fair CLR 62.1 51.1 67% 29.81 1008.6
10 22:53 W 3 10.00 Fair CLR 63 51.1 65% 29.79 1008.1
10 21:53 NW 3 10.00 Fair CLR 64.9 50 59% 29.76 1007.1
10 20:53 NW 3 10.00 Fair CLR 68 48.9 51% 29.73 1006.2
10 19:53 W 7 10.00 Fair CLR 71.1 48 75 70 44% 29.71 1005.5
10 18:53 NW 6 10.00 Fair CLR 73 48.9 43% 29.7 1005.2
10 17:53 W 7 10.00 A Few Clouds FEW080 72 48.9 44% 29.7 1005.1
10 16:53 Vrbl 7 10.00 A Few Clouds FEW075 73.9 48 40% 29.7 1004.9
10 15:53 NW 8 10.00 A Few Clouds FEW070 75 48.9 40% 77 29.69 1004.8
Date Time (edt) Wind (mph) Vis. (mi.) Weather Sky Cond. Air Dwpt Max. Min. Relative Humidity Wind Chill (°F) Heat Index (°F) altimeter (in) sea level (mb) 1 hr 3 hr 6 hr
6 hour
Temperature (ºF) Pressure Precipitation (in)